Location: *
(37.9500°N, 27.3666°E)
Time: 13:25:51
(UTC+00:00)

FALCON 9 DEB - Pass Details

Date: 24 October 2021
Orbit: 417 x 427 km, 53.0° (Epoch: 02 December)

Event Time Altitude Azimuth Distance (km) Brightness Sun altitude
Rises 16:41:50 0° 215° (SW) 2,384 7.4 -16.6°
Reaches altitude 10° 16:43:58 10° 210° (SSW) 1,522 6.3 -17.0°
Maximum altitude 16:47:17 49° 134° (SE) 561 3.3 -17.7°
Enters shadow 16:47:30 48° 120° (ESE) 568 3.3 -17.7°
